Morristown Municipal Airport
KMMU : now visible

Airfield :











YOU CAN JOIN US ON...

 
LOGIN :

Register | Disclaimer

   EN    FR    IT 

 









Legend :    VFR   Marginal VFR   IFR   Intensive IFR   Very Intensive IFR
Visi :
Ceiling :
>= 8 km
>= 3000ft
5 to 8 km
1000 to 3000 ft
1500m to 5 km
500 to 1000 ft
800 to 1500m
200 to 500 ft
< 800m
< 200 ft
Symbols :   Thunderstorms  Fog  Heavy snow  Heavy precipitations  Wind > 20 kt






- Airport Elevation : 187 ft
- IATA code : MMU


KMMU - Morristown Municipal

CURRENT METAR :
  • 221045Z 20003KT 8SM SCT090 23/23 A2968

EXPIRED METARs :
  • 221015Z AUTO 00000KT 10SM SCT065 BKN100 21/20 A2967 RMK AO2
  • 220955Z AUTO 00000KT 10SM SCT065 20/20 A2966 RMK AO2
  • 220935Z AUTO 00000KT 10SM CLR 20/20 A2966 RMK AO2
  • 220915Z AUTO 20004KT 10SM SCT080 20/20 A2966 RMK AO2
  • 220855Z AUTO 17003KT 10SM SCT080 20/19 A2965 RMK AO2
  • 220835Z AUTO 00000KT 10SM CLR 20/20 A2964 RMK AO2
  • 220815Z AUTO 16003KT 10SM CLR 20/20 A2964 RMK AO2

TAF N/A
KZNY FIR / North America



MET'MAP, your aeronautical weather chart ! - Copyright ORBIFLY December 2007 - Disclaimer

ORBIFLY MET'MAP TEAM :

Programming & Development : Alexandra Zaïnal
Concept & original design : Baudouin d'Aumeries
Assistance for programming : Marc-Olivier Méhu
Technical & hardware support : Manuel Goepfert

Contact : metmap@orbifly.com




SOURCES & CREDITS :

   NOAA       Earth
Advisory